星链-34029 (STARLINK-34029)

导读 | 豆包AI

STARLINK-34029是美国SpaceX公司星链(Starlink)星座的一颗低轨互联网卫星,于2025年5月4日发射入轨。星链项目旨在通过构建近地轨道卫星群,为全球尤其是偏远欠发达区域提供高速、低延迟的宽带互联网接入服务,这颗卫星加入后,进一步扩充了星链星座的服务覆盖能力与网络稳定性,助力全球卫星互联网服务组网。

基本信息
目录编号:
63805
目录名称:
STARLINK-34029
国际标识:
2025-092B
轨道中心:
EARTH
卫星名称:
星链-34029
卫星全名:
星链-34029 (STARLINK-34029)
卫星状态:
在轨 (已飞行360 天)
发射日期:
2025-05-04 UTC
国别 :
美国 (US)
星等 :
--
轨道信息
数据来源 国际轨道数据
星历时间: 2026-04-29T09:22:49+0800
16小时前
查看轨道信息
半长轴: 6861.182km
偏心率: 0.0001354
轨道倾角: 43.000°
近地点辐角 283.134°
升交点赤经 248.448°
平近点角 76.936°
近地点: 482.115km
远地点: 483.975km
周期: 94.267分钟
每日圈数: 15.275815
详细信息
固有亮度:
5
最大亮度:
2.5
卫星平台:
Starlink V1.0
覆盖范围:
全球
运营商:
太空探索技术公司
运营商所在国:
美国
制造商(研发单位):
太空探索技术公司
制造商所在国:
美国
使用方式:
暂无
卫星简介
Starlink 计划是 SpaceX 推出的全球卫星互联网项目,通过发射低轨道卫星,为全球尤其是偏远地区提供高速、低延迟的互联网服务。自 2019 年起,Starlink 已部署数千颗卫星,旨在缩小全球数字鸿沟,推动互联网普及。该项目还为军事、航空等行业提供通信支持,带来广泛经济效益。
2D轨道图
3D轨道图
轨道高度分析图
轨道倾角分析图
轨道综合分析图
查看轨道综合分析图